TAT21SB LIRN-LIBC

Flight info

Callsign TAT21SB
Flight time 0h 38m
Altitude 19000
Route POLIT M620 ARBUM
Aircraft F28/M-SDFIRWY/H

Departure

Time 2026-05-05 10:31
Airport Naples International Airport (LIRN)

Arrival

Time 2026-05-05 11:09
Airport Crotone Sant'Anna Pythagoras Airport (LIBC)
Time Latitude Longitude Altitude Speed Heading
2026-05-05 10:12 40.88142 14.28614 281 ft 0 kts 330°
2026-05-05 10:23 40.88126 14.28626 281 ft 4 kts 335°
2026-05-05 10:23 40.88103 14.28637 281 ft 3 kts 346°
2026-05-05 10:23 40.88086 14.28639 282 ft 2 kts
2026-05-05 10:24 40.88073 14.28635 282 ft 2 kts 23°
2026-05-05 10:24 40.88060 14.28624 282 ft 2 kts 40°
2026-05-05 10:24 40.88049 14.28611 286 ft 2 kts 48°
2026-05-05 10:24 40.88042 14.28600 291 ft 2 kts 50°
2026-05-05 10:25 40.88035 14.28588 283 ft 1 kts 51°
2026-05-05 10:26 40.88035 14.28589 283 ft 1 kts 51°
2026-05-05 10:26 40.88051 14.28615 287 ft 6 kts 51°
2026-05-05 10:26 40.88082 14.28668 281 ft 9 kts 53°
2026-05-05 10:27 40.88131 14.28753 278 ft 15 kts 52°
2026-05-05 10:27 40.88207 14.28885 274 ft 20 kts 52°
2026-05-05 10:27 40.88297 14.29040 269 ft 22 kts 52°
2026-05-05 10:27 40.88395 14.29207 264 ft 24 kts 53°
2026-05-05 10:28 40.88498 14.29390 258 ft 25 kts 53°
2026-05-05 10:28 40.88608 14.29581 252 ft 27 kts 52°
2026-05-05 10:28 40.88724 14.29780 245 ft 28 kts 52°
2026-05-05 10:28 40.88843 14.29981 239 ft 28 kts 52°
2026-05-05 10:29 40.88941 14.30160 234 ft 16 kts 53°
2026-05-05 10:29 40.89014 14.30261 231 ft 15 kts 16°
2026-05-05 10:29 40.89102 14.30216 229 ft 13 kts 323°
2026-05-05 10:29 40.89120 14.30175 230 ft 0 kts 265°
2026-05-05 10:30 40.89110 14.30147 231 ft 12 kts 238°
2026-05-05 10:30 40.88946 14.29795 244 ft 77 kts 239°
2026-05-05 10:30 40.88558 14.28979 267 ft 129 kts 238°
2026-05-05 10:30 40.88024 14.27854 471 ft 151 kts 238°
2026-05-05 10:31 40.87367 14.26694 1037 ft 165 kts 227°
2026-05-05 10:31 40.86499 14.25549 1544 ft 190 kts 225°
2026-05-05 10:31 40.85462 14.24325 2272 ft 204 kts 216°
2026-05-05 10:31 40.84174 14.23629 3363 ft 204 kts 186°
2026-05-05 10:32 40.82774 14.23926 4497 ft 206 kts 167°
2026-05-05 10:32 40.81413 14.24517 5528 ft 207 kts 165°
2026-05-05 10:32 40.80505 14.24944 6122 ft 211 kts 164°
2026-05-05 10:32 40.79104 14.25594 6937 ft 218 kts 167°
2026-05-05 10:33 40.77627 14.26180 7730 ft 225 kts 168°
2026-05-05 10:33 40.76109 14.26757 8505 ft 231 kts 168°
2026-05-05 10:33 40.74540 14.27347 9113 ft 238 kts 168°
2026-05-05 10:33 40.72924 14.27957 9589 ft 246 kts 168°
2026-05-05 10:34 40.71233 14.28595 9797 ft 260 kts 168°
2026-05-05 10:34 40.69427 14.29276 9941 ft 280 kts 168°
2026-05-05 10:34 40.67475 14.30014 10081 ft 303 kts 168°
2026-05-05 10:34 40.65393 14.30806 10449 ft 317 kts 167°
2026-05-05 10:35 40.63233 14.31621 10805 ft 333 kts 167°
2026-05-05 10:35 40.60940 14.32487 11022 ft 351 kts 167°
2026-05-05 10:35 40.58606 14.33565 11468 ft 365 kts 155°
2026-05-05 10:35 40.56454 14.35534 11636 ft 386 kts 144°
2026-05-05 10:36 40.54360 14.37767 12299 ft 388 kts 143°
2026-05-05 10:36 40.52357 14.40147 13028 ft 389 kts 138°
2026-05-05 10:36 40.50332 14.42515 13641 ft 391 kts 142°
2026-05-05 10:36 40.48269 14.44894 14108 ft 397 kts 141°
2026-05-05 10:37 40.46156 14.47296 14416 ft 406 kts 141°
2026-05-05 10:37 40.43999 14.49750 14741 ft 414 kts 141°
2026-05-05 10:37 40.41821 14.52228 15243 ft 415 kts 141°
2026-05-05 10:37 40.39648 14.54698 15890 ft 412 kts 141°
2026-05-05 10:38 40.37487 14.57148 16524 ft 410 kts 141°
2026-05-05 10:38 40.35325 14.59603 16978 ft 413 kts 141°
2026-05-05 10:38 40.33134 14.62089 17239 ft 420 kts 141°
2026-05-05 10:38 40.30904 14.64616 17445 ft 428 kts 141°
2026-05-05 10:39 40.28641 14.67181 17793 ft 431 kts 141°
2026-05-05 10:39 40.26376 14.69747 18309 ft 430 kts 141°
2026-05-05 10:39 40.24150 14.72264 18726 ft 430 kts 141°
2026-05-05 10:39 40.21860 14.74853 18803 ft 439 kts 141°
2026-05-05 10:40 40.19550 14.77466 19135 ft 440 kts 141°
2026-05-05 10:40 40.17210 14.80108 19138 ft 449 kts 141°
2026-05-05 10:40 40.14854 14.82767 19130 ft 445 kts 141°
2026-05-05 10:40 40.12522 14.85398 19123 ft 441 kts 141°
2026-05-05 10:41 40.10205 14.88006 19119 ft 437 kts 141°
2026-05-05 10:41 40.07912 14.90588 19116 ft 433 kts 141°
2026-05-05 10:41 40.05635 14.93153 19120 ft 430 kts 141°
2026-05-05 10:41 40.03377 14.95690 19131 ft 427 kts 141°
2026-05-05 10:42 39.98705 15.00366 19128 ft 421 kts 147°
2026-05-05 10:42 39.96297 15.02517 19121 ft 419 kts 147°
2026-05-05 10:42 39.93909 15.04684 19119 ft 417 kts 146°
2026-05-05 10:43 39.91531 15.06871 19118 ft 420 kts 146°
2026-05-05 10:43 39.89144 15.09085 19118 ft 423 kts 146°
2026-05-05 10:43 39.86937 15.11642 19122 ft 428 kts 135°
2026-05-05 10:43 39.84894 15.14503 19124 ft 434 kts 134°
2026-05-05 10:44 39.82835 15.17410 19138 ft 440 kts 134°
2026-05-05 10:44 39.80719 15.20316 19142 ft 445 kts 135°
2026-05-05 10:44 39.78552 15.23225 19135 ft 450 kts 135°
2026-05-05 10:44 39.76353 15.26143 19132 ft 454 kts 136°
2026-05-05 10:45 39.74126 15.29076 19129 ft 457 kts 136°
2026-05-05 10:45 39.71910 15.31932 19123 ft 442 kts 139°
2026-05-05 10:45 39.69616 15.34506 19119 ft 431 kts 140°
2026-05-05 10:45 39.67354 15.37039 19109 ft 429 kts 141°
2026-05-05 10:46 39.65086 15.39543 19113 ft 428 kts 141°
2026-05-05 10:46 39.62819 15.42038 19110 ft 427 kts 141°
2026-05-05 10:46 39.60558 15.44528 19119 ft 426 kts 141°
2026-05-05 10:46 39.58295 15.47018 19119 ft 429 kts 141°
2026-05-05 10:47 39.56015 15.49524 19126 ft 431 kts 141°
2026-05-05 10:47 39.53724 15.52043 19127 ft 433 kts 141°
2026-05-05 10:47 39.51420 15.54571 19127 ft 435 kts 141°
2026-05-05 10:47 39.49107 15.57110 19126 ft 437 kts 141°
2026-05-05 10:48 39.46785 15.59657 19126 ft 438 kts 141°
2026-05-05 10:48 39.44453 15.62210 19122 ft 440 kts 141°
2026-05-05 10:48 39.42132 15.64754 19123 ft 441 kts 141°
2026-05-05 10:48 39.39788 15.67320 19121 ft 442 kts 141°
2026-05-05 10:49 39.37438 15.69888 19122 ft 443 kts 141°
2026-05-05 10:49 39.35083 15.72462 19121 ft 444 kts 141°
2026-05-05 10:49 39.32723 15.75040 19122 ft 445 kts 141°
2026-05-05 10:49 39.30358 15.77620 19117 ft 445 kts 141°
2026-05-05 10:50 39.27991 15.80204 19113 ft 446 kts 141°
2026-05-05 10:50 39.25619 15.82788 19112 ft 446 kts 141°
2026-05-05 10:50 39.23245 15.85373 19112 ft 447 kts 141°
2026-05-05 10:50 39.20880 15.87949 19112 ft 440 kts 141°
2026-05-05 10:51 39.18571 15.90460 19108 ft 429 kts 141°
2026-05-05 10:51 39.16312 15.92915 19106 ft 420 kts 141°
2026-05-05 10:51 39.14098 15.95321 19107 ft 413 kts 141°
2026-05-05 10:51 39.11922 15.97682 19107 ft 406 kts 141°
2026-05-05 10:52 39.09782 16.00003 19105 ft 400 kts 141°
2026-05-05 10:52 39.07664 16.02301 19103 ft 395 kts 141°
2026-05-05 10:52 39.05575 16.04570 19108 ft 391 kts 140°
2026-05-05 10:52 39.03645 16.07022 19111 ft 389 kts 134°
2026-05-05 10:53 39.01837 16.09592 19115 ft 386 kts 131°
2026-05-05 10:53 39.00122 16.12253 18931 ft 387 kts 131°
2026-05-05 10:53 38.98350 16.14867 18718 ft 388 kts 131°
2026-05-05 10:53 38.96571 16.17510 18318 ft 394 kts 132°
2026-05-05 10:54 38.94750 16.20199 17762 ft 402 kts 131°
2026-05-05 10:54 38.92901 16.22929 17232 ft 408 kts 131°
2026-05-05 10:54 38.91350 16.25985 16678 ft 412 kts 113°
2026-05-05 10:54 38.90585 16.29525 16152 ft 413 kts 96°
2026-05-05 10:55 38.90512 16.33186 15650 ft 406 kts 87°
2026-05-05 10:55 38.90894 16.36710 15159 ft 392 kts 76°
2026-05-05 10:55 38.91510 16.40015 14685 ft 380 kts 75°
2026-05-05 10:55 38.92121 16.43276 14240 ft 371 kts 75°
2026-05-05 10:56 38.92714 16.46464 13744 ft 363 kts 75°
2026-05-05 10:56 38.93164 16.49625 13226 ft 357 kts 81°
2026-05-05 10:56 38.93530 16.52757 12713 ft 352 kts 81°
2026-05-05 10:56 38.93873 16.55849 12215 ft 347 kts 81°
2026-05-05 10:57 38.94207 16.58905 11738 ft 344 kts 81°
2026-05-05 10:57 38.94536 16.61930 11263 ft 340 kts 81°
2026-05-05 10:57 38.94863 16.64931 10793 ft 338 kts 81°
2026-05-05 10:57 38.95189 16.67909 10337 ft 335 kts 81°
2026-05-05 10:58 38.95511 16.70863 9877 ft 333 kts 81°
2026-05-05 10:58 38.95834 16.73800 9403 ft 331 kts 81°
2026-05-05 10:58 38.96153 16.76708 9024 ft 326 kts 81°
2026-05-05 10:58 38.96467 16.79573 8698 ft 321 kts 81°
2026-05-05 10:59 38.96775 16.82392 8388 ft 317 kts 81°
2026-05-05 10:59 38.97080 16.85176 8081 ft 313 kts 82°
2026-05-05 10:59 38.97381 16.87931 7773 ft 310 kts 82°
2026-05-05 10:59 38.97680 16.90662 7470 ft 307 kts 82°
2026-05-05 11:00 38.97978 16.93371 7190 ft 305 kts 82°
2026-05-05 11:00 38.98270 16.96067 6891 ft 303 kts 82°
2026-05-05 11:00 38.98567 16.98745 6586 ft 302 kts 82°
2026-05-05 11:00 38.98858 17.01413 6285 ft 301 kts 82°
2026-05-05 11:01 38.99146 17.04086 5881 ft 303 kts 82°
2026-05-05 11:01 38.99504 17.06730 5477 ft 297 kts 73°
2026-05-05 11:01 39.00530 17.08981 5067 ft 293 kts 45°
2026-05-05 11:01 39.02205 17.10397 4617 ft 289 kts 18°
2026-05-05 11:02 39.04127 17.10703 4196 ft 280 kts 351°
2026-05-05 11:02 39.05931 17.10047 3797 ft 261 kts 337°
2026-05-05 11:02 39.07606 17.09286 3378 ft 249 kts 346°
2026-05-05 11:02 39.09306 17.09248 3017 ft 241 kts
2026-05-05 11:03 39.10945 17.09446 2815 ft 233 kts
2026-05-05 11:03 39.12544 17.09680 2635 ft 230 kts
2026-05-05 11:03 39.14119 17.09881 2430 ft 226 kts
2026-05-05 11:03 39.15617 17.09448 2266 ft 215 kts 332°
2026-05-05 11:04 39.16649 17.08227 2258 ft 194 kts 294°
2026-05-05 11:04 39.16903 17.06636 2290 ft 173 kts 258°
2026-05-05 11:04 39.16584 17.05199 2336 ft 165 kts 241°
2026-05-05 11:04 39.15768 17.04207 2424 ft 166 kts 197°
2026-05-05 11:05 39.14623 17.04053 2500 ft 169 kts 180°
2026-05-05 11:05 39.13439 17.04132 2540 ft 173 kts 176°
2026-05-05 11:05 39.12237 17.04320 2543 ft 172 kts 172°
2026-05-05 11:05 39.11087 17.04620 2588 ft 164 kts 168°
2026-05-05 11:06 39.10072 17.04945 2524 ft 135 kts 167°
2026-05-05 11:06 39.09206 17.05226 2518 ft 121 kts 168°
2026-05-05 11:06 39.08395 17.05490 2279 ft 126 kts 168°
2026-05-05 11:06 39.07530 17.05766 2190 ft 129 kts 167°
2026-05-05 11:07 39.06663 17.06064 2110 ft 129 kts 168°
2026-05-05 11:07 39.05780 17.06345 1923 ft 133 kts 169°
2026-05-05 11:07 39.04886 17.06621 1670 ft 130 kts 168°
2026-05-05 11:07 39.04023 17.06884 1434 ft 123 kts 169°
2026-05-05 11:08 39.03158 17.07147 1156 ft 130 kts 168°
2026-05-05 11:08 39.02280 17.07378 948 ft 125 kts 171°
2026-05-05 11:08 39.01453 17.07586 730 ft 120 kts 172°
2026-05-05 11:08 39.00654 17.07788 570 ft 111 kts 172°
2026-05-05 11:09 38.99973 17.07958 525 ft 83 kts 171°
2026-05-05 11:09 38.99616 17.08044 523 ft 24 kts 171°
2026-05-05 11:09 38.99469 17.08080 523 ft 20 kts 167°
2026-05-05 11:09 38.99348 17.08111 523 ft 16 kts 178°
2026-05-05 11:10 38.99307 17.08057 523 ft 6 kts 293°
2026-05-05 11:10 38.99335 17.08016 523 ft 6 kts 312°
2026-05-05 11:10 38.99364 17.07975 523 ft 6 kts 312°
2026-05-05 11:10 38.99397 17.07923 523 ft 9 kts 308°
2026-05-05 11:11 38.99446 17.07859 523 ft 11 kts 342°
2026-05-05 11:11 38.99522 17.07844 523 ft 11 kts 349°
2026-05-05 11:11 38.99594 17.07822 524 ft 10 kts 349°
2026-05-05 11:11 38.99639 17.07807 524 ft 2 kts 316°
2026-05-05 11:12 38.99642 17.07778 524 ft 6 kts 261°
2026-05-05 11:12 38.99636 17.07733 524 ft 4 kts 259°
2026-05-05 11:12 38.99635 17.07724 524 ft 0 kts 259°